Date String (YYYY-MM-DD hh:mm:ss) UTC,Instrument flags,Ambient pressure (hPa),Sample flow (lpm),Bypass flow (lpm),Sample temperature (°C),Ambient temperature (°C),ASC tube jacket temperature (°C),LED temperature (°C),Box temperature (°C),Sample RH (%),Span deviation,Mass concentration (μg/m³),Mass concentration (μg/m³),Mass concentration (μg/m³)
DateTimeUTC,F1_M11,P_M11,Q1_M11,Q2_M11,T1_M11,T2_M11,T3_M11,T4_M11,T5_M11,U1_M11,ZSPAN_M11,X0_M11,X2_M11,X1_M11
2021-09-07 03:00:00,,0829.1,4.99,0.00,29.0,26.8,00.0,38.1,30.7,09.5,0001.2,0030.33,0021.01,0019.98
2021-09-07 03:01:00,,0829.1,5.00,0.00,29.0,27.2,00.0,38.1,30.8,09.5,0000.9,0030.41,0021.05,0020.01
2021-09-07 03:02:00,,0829.1,4.99,0.00,29.1,27.5,00.0,38.1,30.9,09.3,0000.8,0030.16,0021.11,0020.05
2021-09-07 03:03:00,,0829.2,5.01,0.00,29.1,27.8,00.0,38.1,31.0,09.2,0001.2,0030.27,0021.14,0020.08
2021-09-07 03:04:00,,0829.2,5.00,0.00,29.2,28.0,00.0,38.2,31.0,09.3,0000.9,0030.64,0021.15,0020.11
2021-09-07 03:05:00,,0829.2,4.99,0.00,29.2,28.2,00.0,38.2,31.1,09.2,0000.3,0030.11,0021.16,0020.13
2021-09-07 03:06:00,,0829.2,5.00,0.00,29.3,28.4,00.0,38.2,31.2,09.1,0000.2,0029.46,0021.27,0020.21
2021-09-07 03:07:00,,0829.2,5.00,0.00,29.3,28.5,00.0,38.2,31.2,09.0,0000.2,0029.49,0021.31,0020.26
2021-09-07 03:08:00,,0829.3,5.00,0.00,29.4,28.7,00.0,38.3,31.3,09.1,0000.1,0030.44,0021.32,0020.26
2021-09-07 03:09:00,,0829.2,4.99,0.00,29.4,28.7,00.0,38.3,31.3,09.0,-000.1,0030.60,0021.33,0020.28
2021-09-07 03:10:00,,0829.2,5.01,0.00,29.4,27.5,00.0,38.3,31.1,09.0,-000.3,0030.61,0021.39,0020.32
2021-09-07 03:11:00,,0829.2,5.00,0.00,29.3,26.4,00.0,38.3,30.7,09.1,-000.6,0030.32,0021.47,0020.39
2021-09-07 03:12:00,,0829.2,5.00,0.00,29.2,26.5,00.0,38.3,30.7,09.1,-000.6,0030.33,0021.52,0020.42
2021-09-07 03:13:00,,0829.2,5.00,0.00,29.2,26.9,00.0,38.3,30.8,09.2,-000.2,0030.38,0021.55,0020.44
2021-09-07 03:14:00,,0829.2,5.00,0.00,29.2,27.2,00.0,38.3,30.9,09.3,-000.2,0030.29,0021.57,0020.46
2021-09-07 03:15:00,,0829.3,4.99,0.00,29.2,27.6,00.0,38.3,31.0,09.2,0000.1,0030.13,0021.57,0020.46
2021-09-07 03:16:00,,0829.3,5.02,0.00,29.2,27.9,00.0,38.3,31.1,09.2,0000.2,0030.26,0021.64,0020.50
2021-09-07 03:17:00,,0829.2,5.00,0.00,29.3,28.1,00.0,38.3,31.1,09.2,0000.2,0030.62,0021.62,0020.48
2021-09-07 03:18:00,,0829.2,4.99,0.00,29.3,28.3,00.0,38.3,31.2,09.2,0000.3,0030.98,0021.59,0020.47
2021-09-07 03:19:00,,0829.2,5.00,0.00,29.4,28.5,00.0,38.3,31.3,09.1,0000.2,0030.40,0021.62,0020.50
2021-09-07 03:20:00,,0829.3,4.99,0.00,29.4,28.6,00.0,38.3,31.3,09.0,0000.3,0030.44,0021.73,0020.59
2021-09-07 03:21:00,,0829.2,5.00,0.00,29.5,27.9,00.0,38.4,31.1,09.0,0000.3,0030.62,0021.78,0020.62
2021-09-07 03:22:00,,0829.3,5.00,0.00,29.3,26.4,00.0,38.4,30.7,09.0,0000.5,0030.54,0021.78,0020.66
2021-09-07 03:23:00,,0829.3,5.00,0.00,29.3,26.4,00.0,38.4,30.7,09.1,0001.3,0030.67,0021.83,0020.71
2021-09-07 03:24:00,,0829.3,5.01,0.00,29.2,26.7,00.0,38.3,30.8,09.1,0001.3,0031.20,0021.88,0020.75
2021-09-07 03:25:00,,0829.4,4.99,0.00,29.2,27.1,00.0,38.3,30.9,09.2,0001.4,0031.03,0021.90,0020.79
2021-09-07 03:26:00,,0829.4,5.00,0.00,29.2,27.5,00.0,38.3,31.0,09.1,0001.7,0030.99,0021.94,0020.84
2021-09-07 03:27:00,,0829.4,5.00,0.00,29.3,27.8,00.0,38.3,31.1,09.1,0002.1,0031.18,0021.99,0020.88
2021-09-07 03:28:00,,0829.5,5.01,0.00,29.3,28.1,00.0,38.3,31.1,09.1,0002.3,0031.03,0021.99,0020.90
2021-09-07 03:29:00,,0829.5,5.01,0.00,29.4,28.3,00.0,38.3,31.2,09.2,0002.2,0030.87,0022.06,0020.94
2021-09-07 03:30:00,,0829.5,5.00,0.00,29.4,28.5,00.0,38.4,31.3,09.3,0002.2,0031.34,0022.08,0020.94
2021-09-07 03:31:00,,0829.4,5.00,0.00,29.5,28.6,00.0,38.4,31.3,09.2,0002.2,0032.20,0022.00,0020.88
2021-09-07 03:32:00,,0829.4,5.00,0.00,29.5,28.7,00.0,38.4,31.4,09.0,0002.2,0032.26,0022.01,0020.88
2021-09-07 03:33:00,,0829.4,5.02,0.00,29.5,27.4,00.0,38.4,31.0,08.9,0001.8,0032.91,0022.08,0020.89
2021-09-07 03:34:00,,0829.4,4.99,0.00,29.3,25.6,00.0,38.4,30.5,09.0,0001.5,0033.01,0022.13,0020.97
2021-09-07 03:35:00,,0829.3,5.01,0.00,29.2,25.5,00.0,38.3,30.4,09.0,0001.8,0032.68,0022.19,0021.03
2021-09-07 03:36:00,,0829.3,4.99,0.00,29.1,26.0,00.0,38.3,30.5,09.0,0001.8,0032.50,0022.30,0021.11
2021-09-07 03:37:00,,0829.4,5.00,0.00,29.1,26.4,00.0,38.3,30.7,09.2,0001.3,0032.72,0022.40,0021.17
2021-09-07 03:38:00,,0829.4,5.01,0.00,29.1,26.9,00.0,38.2,30.8,09.0,0001.3,0032.97,0022.40,0021.20
2021-09-07 03:39:00,,0829.3,5.00,0.00,29.1,27.3,00.0,38.2,30.8,08.9,0001.3,0032.95,0022.48,0021.28
2021-09-07 03:40:00,,0829.4,5.00,0.00,29.1,27.6,00.0,38.2,30.9,08.8,0000.9,0033.25,0022.51,0021.31
2021-09-07 03:41:00,,0829.3,5.02,0.00,29.2,27.9,00.0,38.2,31.0,08.7,0000.8,0033.43,0022.52,0021.37
2021-09-07 03:42:00,,0829.4,5.00,0.00,29.2,28.1,00.0,38.3,31.0,08.7,0000.8,0032.49,0022.63,0021.46
2021-09-07 03:43:00,,0829.4,4.99,0.00,29.3,28.2,00.0,38.3,31.1,08.6,0001.1,0032.77,0022.72,0021.55
2021-09-07 03:44:00,,0829.4,5.00,0.00,29.3,28.4,00.0,38.3,31.2,08.6,0001.4,0033.03,0022.71,0021.59
2021-09-07 03:45:00,,0829.4,5.00,0.00,29.4,28.5,00.0,38.3,31.2,08.6,0001.0,0033.05,0022.65,0021.54
2021-09-07 03:46:00,,0829.4,4.99,0.00,29.4,28.6,00.0,38.3,31.3,08.6,0000.2,0033.09,0022.60,0021.52
2021-09-07 03:47:00,,0829.4,5.00,0.00,29.5,28.7,00.0,38.4,31.4,08.7,0000.0,0033.07,0022.56,0021.49
2021-09-07 03:48:00,,0829.4,5.02,0.00,29.5,28.3,00.0,38.4,31.3,08.8,-000.0,0033.09,0022.55,0021.49
2021-09-07 03:49:00,,0829.4,4.99,0.00,29.4,26.2,00.0,38.4,30.7,08.8,0000.0,0032.91,0022.56,0021.49
2021-09-07 03:50:00,,0829.3,5.00,0.00,29.2,25.3,00.0,38.3,30.4,08.9,-000.2,0032.43,0022.61,0021.50
2021-09-07 03:51:00,,0829.3,5.00,0.00,29.1,25.7,00.0,38.3,30.5,09.0,-000.1,0032.69,0022.65,0021.49
2021-09-07 03:52:00,,0829.4,5.00,0.00,29.1,26.2,00.0,38.3,30.6,09.0,0000.1,0031.95,0022.67,0021.47
2021-09-07 03:53:00,,0829.4,5.00,0.00,29.1,26.6,00.0,38.3,30.7,09.1,0000.1,0031.77,0022.64,0021.48
2021-09-07 03:54:00,,0829.4,4.99,0.00,29.1,27.1,00.0,38.2,30.8,09.0,-000.2,0032.30,0022.59,0021.44
2021-09-07 03:55:00,,0829.5,5.00,0.00,29.1,27.4,00.0,38.2,30.9,09.0,-000.3,0032.23,0022.57,0021.42
2021-09-07 03:56:00,,0829.5,5.00,0.00,29.2,27.7,00.0,38.2,30.9,09.0,-000.3,0032.02,0022.59,0021.41
2021-09-07 03:57:00,,0829.5,5.00,0.00,29.2,28.0,00.0,38.2,31.0,09.0,0000.3,0031.70,0022.56,0021.39
2021-09-07 03:58:00,,0829.5,5.00,0.00,29.2,28.2,00.0,38.2,31.1,08.9,0000.9,0031.86,0022.56,0021.39
2021-09-07 03:59:00,,0829.5,5.00,0.00,29.3,28.3,00.0,38.3,31.1,08.9,0001.2,0031.81,0022.58,0021.39
